Regional Weather Roundup
Issued by NWS Charleston, WV

Home | Current Version | Previous Version | Text Only | Print | Product List | Glossary On
Versions: 1 2 3 4 5 6 7 8 9 10 11 12 13 14 15 16 17 18 19 20 21 22 23 24 25 26 27 28 29 30 31 32 33 34 35 36 37 38 39 40 41 42 43 44 45 46 47 48 49 50
000
ASUS41 KRLX 031110
RWRRLX
West Virginia Regional Weather Roundup
National Weather Service Charleston WV
600 AM EST TUE MAR 03 2015

Note: "fair" indicates few or no clouds below 12,000 feet with no
significant weather and/or obstructions to visibility.

WVZ003-031200-
Northern Panhandle of West Virginia

CITY           SKY/WX    TMP DP  RH WIND       PRES   REMARKS
WHEELING       CLOUDY    23  13  65 E12       30.23F
$$

WVZ009-031200-
Northwest West Virginia

CITY           SKY/WX    TMP DP  RH WIND       PRES   REMARKS
PARKERSBURG    CLOUDY    28  18  66 E6        30.26R
$$

WVZ006-031200-
Western West Virginia

CITY           SKY/WX    TMP DP  RH WIND       PRES   REMARKS
HUNTINGTON     CLOUDY    29  21  72 CALM      30.19F
$$

WVZ015-031200-
West Central West Virginia

CITY           SKY/WX    TMP DP  RH WIND       PRES   REMARKS
CHARLESTON     CLOUDY    30  22  72 CALM      30.20R
$$

WVZ022-031-031200-
North Central West Virginia

CITY           SKY/WX    TMP DP  RH WIND       PRES   REMARKS
CLARKSBURG     CLOUDY    27  21  78 N3        30.22S
MORGANTOWN     CLOUDY    26  15  63 N3        30.24F
$$

WVZ025-035-042-045-031200-
Southern West Virginia

CITY           SKY/WX    TMP DP  RH WIND       PRES   REMARKS
BECKLEY        CLOUDY    34  16  47 SE14G24   30.18R
LOGAN          MOCLDY    34  21  60 CALM      30.13S
BLUEFIELD      CLOUDY    38  18  44 SE12      30.19R
LEWISBURG      CLOUDY    28  20  71 NE5       30.26R
$$

WVZ047-031200-
Northern Mountains of West Virginia

CITY           SKY/WX    TMP DP  RH WIND       PRES   REMARKS
ELKINS         CLOUDY    26  21  81 CALM      30.20F
$$

WVZ052-031200-
Eastern Panhandle of West Virginia

CITY           SKY/WX    TMP DP  RH WIND       PRES   REMARKS
MARTINSBURG    CLOUDY    27  17  66 CALM      30.39R
PETERSBURG     CLOUDY    27  18  69 CALM      30.33F
$$


USA.gov is the U.S. government's official web portal to all federal, state and local government web resources and services.